www.pogodaiklimat.ru

Погода и климат >> Архив погоды >> Россия >> Краснодарский край >> Сочи аэропорт (Адлер)


ПОГОДА в Сочи аэропорту (Адлер)

  • Прогноз погоды в Сочи аэропорту (Адлер)
  • Монитор погоды в Сочи аэропорту (Адлер)
  • Климат города

АРХИВ ПОГОДЫ в Сочи аэропорту (Адлер)

Время (UTC), дата Ветер
(напр.,м/с)
 
Видим.   Явления Облачность Т
(С)
Тd
(С)
f
(%)
Тe
(С)
Тes
(С)
Комфортность P
(гПа)
Po
(гПа)
Тmin
(С)
Tmax
(С)
R
(мм)
R24
(мм)
S
(см)
12 11.10 СЗ 4 10 км 5/5 600 м
[Cu hum]
+22.3 +17.7 75 +27 +29 душно 1018.5 1016.8
15 11.10 З 4 10 км 3/1 600 м
[Sc Ac trans]
+20.6 +19.0 91 +25 +25 комфорт 1018.2 1016.4 +23.9
18 11.10 СВ 2 4000 м ясно +17.8 +16.6 93 +18 +18 1018.8 1017.0
21 11.10 В 2 4000 м 9/9 480 м
[St]
+18.1 +16.9 93 +19 +19 1019.4 1017.6
00 12.10 СВ 4 4000 м ясно +16.6 +15.2 91 +16 +16 1019.5 1017.7
03 12.10 СВ 3 4000 м 4/4 480 м
[St]
+15.3 +13.7 90 +15 +15 1020.3 1018.5 +15.2
06 12.10 В 4 20 км 3/3 300 м
[Sc]
+18.8 +14.1 74 +20 +21 1021.5 1019.7
09 12.10 З 3 20 км 3/3 300 м
[Sc]
+22.4 +17.4 73 +27 +32 душно 1021.5 1019.8
12 12.10 З 3 20 км 1/1 600 м
[Cu hum]
+22.2 +17.4 74 +27 +30 душно 1021.0 1019.3
15 12.10 З 2 4000 м ясно +20.3 +17.7 85 +24 +24 комфорт 1020.4 1018.6 +22.7
18 12.10 СВ 2 4000 м ясно +17.6 +16.3 92 +18 +18 1021.7 1019.9
21 12.10 штиль 0 4000 м ясно +16.8 +15.6 93 +17 +17 1022.2 1020.4
00 13.10 штиль 0 4000 м ясно +15.7 +14.9 95 +15 +15 1022.0 1020.2
03 13.10 штиль 0 4000 м ясно +13.9 +13.3 96 +13 +13 1022.0 1020.2 +13.9
06 13.10 В 1 20 км ясно +20.4 +12.2 59 +23 +26 комфорт 1022.4 1020.6 +13.8
09 13.10 ЮЗ 3 20 км ясно +23.5 +14.8 58 +26 +33 жарко 1021.9 1020.2
12 13.10 З 3 20 км ясно +24.2 +15.9 60 +27 +31 жарко 1020.6 1018.8
15 13.10 СЗ 1 4000 м ясно +21.1 +17.7 81 +25 +25 комфорт 1019.4 1017.6 +24.9
18 13.10 В 3 4000 м ясно +18.3 +15.8 85 +19 +19 1020.3 1018.5
21 13.10 СВ 5 4000 м ясно +17.5 +14.2 81 +17 +17 1021.1 1019.3
00 14.10 СВ 4 4000 м ясно +15.7 +12.8 83 +15 +15 1021.0 1019.2
03 14.10 СВ 3 4000 м ясно +15.1 +12.0 82 +14 +14 1021.1 1019.3 +14.7
06 14.10 СВ 4 20 км ясно +18.6 +12.7 69 +19 +21 1022.0 1020.2
09 14.10 ЮВ 4 20 км ясно +22.7 +13.4 56 +26 +31 жарко 1021.2 1019.5
12 14.10 ЮЗ 2 20 км 3/1 1000 м
[Cu hum Ci fib]
+23.0 +15.3 62 +27 +31 душно 1020.4 1018.7
15 14.10 ЮЗ 2 4000 м 3/0
[Ci fib]
+20.2 +15.5 74 +23 +23 комфорт 1019.7 1017.9 +23.7
18 14.10 ЮВ 1 4000 м ясно +16.4 +14.3 87 +17 +17 1020.2 1018.4
21 14.10 СВ 3 4000 м ясно +15.5 +13.1 86 +15 +15 1020.7 1018.9
00 15.10 СВ 4 4000 м ясно +15.1 +10.7 75 +14 +14 1021.2 1019.4
03 15.10 СВ 4 4000 м ясно +14.3 +9.2 71 +13 +13 1021.6 1019.8 +14.0
06 15.10 СВ 5 20 км 8/0
[Ci fib]
+18.0 +8.1 52 +18 +19 1021.6 1019.8 +13.5
09 15.10 З 2 20 км 10/0
[Ci fib]
+22.5 +13.3 56 +25 +32 комфорт 1021.8 1020.1
12 15.10 З 3 20 км 10/1 1000 м
[Cu hum Ci fib]
+21.4 +15.6 70 +25 +27 комфорт 1021.0 1019.3
15 15.10 СЗ 2 4000 м 10/5 1260 м
[Cu hum Ci fib]
+20.0 +15.9 77 +23 +23 комфорт 1020.9 1019.1 +23.6
18 15.10 СВ 1 4000 м ясно +16.8 +15.4 91 +18 +18 1021.2 1019.4
21 15.10 штиль 0 4000 м ясно +15.3 +14.2 93 +15 +15 1021.3 1019.5
00 16.10 СВ 3 4000 м ясно +15.2 +13.0 87 +14 +14 1021.3 1019.5
03 16.10 штиль 0 4000 м ясно +13.7 +11.7 88 +13 +13 1021.5 1019.7 +13.3
06 16.10 СВ 4 20 км ясно +17.8 +11.5 67 +18 +19 1022.0 1020.2 +13.1
09 16.10 З 3 20 км ясно +22.2 +14.8 63 +26 +32 душно 1021.8 1020.1
12 16.10 З 5 20 км ясно +22.0 +16.8 72 +26 +28 душно 1020.2 1016.8
15 16.10 З 2 4000 м ясно +20.4 +17.5 83 +24 +24 комфорт 1019.3 1017.5 +23.3
18 16.10 В 1 4000 м ясно +15.3 +13.3 88 +16 +16 1019.8 1018.0
21 16.10 СВ 2 4000 м ясно +14.5 +13.0 91 +14 +14 1019.8 1018.0
00 17.10 СВ 4 4000 м ясно +15.8 +12.2 79 +15 +15 1020.5 1018.7
03 17.10 В 4 4000 м ясно +14.2 +10.7 79 +13 +13 1020.2 1018.4 +13.9
06 17.10 В 4 20 км ясно +18.0 +11.2 64 +18 +19 1020.4 1018.6
09 17.10 ЮВ 3 20 км ясно +23.5 +12.3 49 +25 +31 комфорт 1019.6 1017.9
12 17.10 Ю 2 20 км ясно +22.7 +13.6 56 +26 +30 жарко 1018.3 1016.6
15 17.10 С 1 4000 м ясно +20.1 +14.7 71 +24 +24 комфорт 1017.7 1015.9 +25.2
18 17.10 СВ 2 4000 м ясно +15.6 +13.8 89 +15 +15 1018.3 1016.5
21 17.10 В 1 4000 м ясно +14.9 +13.4 91 +15 +15 1018.3 1016.5
00 18.10 СВ 3 4000 м ясно +14.5 +11.9 84 +14 +14 1018.3 1016.5
03 18.10 СВ 1 4000 м ясно +13.3 +10.6 84 +13 +13 1018.3 1016.5 +12.9
06 18.10 СВ 3 20 км ясно +17.0 +10.9 67 +17 +19 1018.6 1016.8
09 18.10 Ю 2 20 км ясно +23.2 +13.4 54 +26 +34 жарко 1018.1 1016.4

 

Местоположение метеостанции Сочи аэропорт (Адлер) (Краснодарский край, Россия): широта 43.43 долгота 39.90 высота над уровнем моря 15 м.

В архиве по умолчанию представлена погода в Сочи аэропорту (Адлер) за последнюю неделю. Архивные данные за месяц целиком и за предыдущие месяцы, начиная с января 2011 года, Вы можете получить, выбрав интересующий диапазон дат из раскрывающегося списка и нажав кнопку "Ввод!".


*Определитесь, кто Вы:
робот инопланетянин человек

Внимание! Время в таблицах - всемирное. Для получения местного времени необходимо прибавить поправку, которая в Сочи аэропорту (Адлер) равна 3 ч.

Смотрите также архив погоды в соседних городах и на ближайших метеорологических станциях:

Погода в Имеретинке (Краснодарский край, Россия) (5 км)
Погода в Сочи (Краснодарский край, Россия) (20 км)
Погода в Кепше (Краснодарский край, Россия) (24 км)
Погода в Красной Поляне (Краснодарский край, Россия) (37 км)
Погода в Горная Карусель 1500 (Краснодарский край, Россия) (40 км)
Погода в Горная Карусель 1000 (Краснодарский край, Россия) (40 км)
Погода в Кордоне Лаура (Краснодарский край, Россия) (44 км)
Погода в Солох Ауле (Краснодарский край, Россия) (47 км)
Погода в Кичмае (Краснодарский край, Россия) (54 км)
Погода в Гузерипле (Адыгея, Россия) (66 км)

Пояснения к столбцам:

Ветер - указаны скорость ветра в м/с - средняя за 10 мин, порывы в срок и между сроками (в фигурных скобках) и направление, откуда дует ветер: С - северный, СВ - северо-восточный, В - восточный, ЮВ - юго-восточный, Ю - южный, ЮЗ - юго-западный, З - западный, СЗ - северо-западный.
Видимость - горизонтальная дальность видимости в метрах или километрах. При видимости от 1 до 10 км при отсутствии осадков обычно наблюдается дымка, при ухудшении видимости до 1 км и менее - туман. В сухую погоду видимость может ухудшаться дымом, пылью или мглою.
Явления - указаны атмосферные явления, наблюдавшиеся в срок или в последний час перед сроком; фигурными скобками обозначены явления, наблюдавшиеся между сроками (за 1-3 часа до срока); квадратными скобками обозначены град или гололедные отложения с указанием их диаметра в мм.
Облачность - указаны через наклонную черту общая и нижняя облачность в баллах и высота нижней границы облаков в метрах; квадратными скобками обозначены формы облаков: Ci - перистые, Cs - перисто-слоистые, Cc - перисто-кучевые, Ac - высококучевые, As - высокослоистые, Sc - слоисто-кучевые, Ns - слоисто-дождевые, Cu - кучевые, Cb - кучево-дождевые. Подробнее классификацию облаков см. в Атласе облаков (PDF).
T - Температура воздуха - температура, измеренная на высоте 2 м над землей.
Td - Температура точки росы - температура, при понижении до которой содержащийся в воздухе водяной пар достигнет насыщения.
f - Относительная влажность воздуха - влажноcть воздуха, измеренная на высоте 2 м над землей.
Te - Эффективная температура - температура, которую ощущает одетый по сезону человек в тени. Характеристика душности погоды. При расчете учитывается влияние влажности воздуха и скорости ветра на теплоощущения человека.
Tes - Эффективная температура на солнце - температура, которую ощущает человек, с поправкой на солнечный нагрев. Характеристика знойности погоды. Зависит от высоты солнца над горизонтом, облачности и скорости ветра. Ночью, в пасмурную погоду, а также при ветре 12 м/с и более поправка равна нулю.
P - Атмосферное давление - приведенное к уровню моря атмосферное давление.
Po - Атмосферное давление - измеренное на уровне метеостанции атмосферное давление.
Tmin - Минимальная температура - минимум температуры воздуха на высоте 2 м над землей.
Tmax - Максимальная температура - максимум температуры воздуха на высоте 2 м над землей.
R - Количество осадков - Количество выпавших осадков за период времени, мм. При наведении курсора мыши на число - период времени, за который выпало указанное количество осадков.
R24 - Количество осадков - Количество выпавших осадков за 24 часа, мм.
S - Снежный покров - Высота снежного покрова, см. При наведении курсора мыши на число - состояние снежного покрова и степень покрытия местности в баллах.